Lid_Strength_Index
6 9 10 9 8 7 7 8 9 7 6 6 7 7 6 4 4 4 4 4 3 3 2 1 1 1 1 1 0 0 0 0 0 1 1 1 1 0 -0 -0 -1 -1 -1 -1
7 10 8 7 7 7 7 8 9 7 6 7 7 7 6 5 5 4 4 4 3 3 2 2 1 2 1 1 1 1 0 0 0 0 0 0 0 0 -0 -1 -1 -1 -1 -1
9 9 6 8 8 8 8 8 8 9 7 6 7 9 7 5 4 4 4 3 3 3 3 2 2 2 2 2 1 1 1 0 0 -0 -0 -0 -0 0 1 0 0 -0 -1 -1
8 7 7 8 8 8 10 6 7 8 9 11 7 13 8 6 6 5 4 4 3 3 2 2 2 2 2 2 1 1 1 1 -0 -0 -0 -0 1 2 1 -0 -0 0 -1 -1
10 8 9 8 8 7 8 6 7 7 8 9 10 11 9 6 7 6 5 4 3 3 2 3 3 2 2 1 1 1 1 0 0 -0 -1 1 1 1 0 0 0 -0 -0 -1
9 6 6 8 6 6 6 7 7 7 8 12 10 10 10 8 7 6 5 4 3 3 3 3 2 2 2 1 1 1 1 1 0 0 0 0 1 1 1 1 1 1 -0 -0
10 8 6 6 7 6 6 8 12 13 13 14 9 10 9 7 6 5 5 4 3 3 3 3 3 3 2 2 2 1 1 1 1 0 0 0 0 1 1 1 1 1 0 1
11 12 8 6 8 8 8 8 11 16 14 12 9 12 9 5 5 4 4 4 3 4 3 3 3 3 2 2 2 1 1 1 1 1 0 0 0 1 1 0 0 0 0 0
11 11 6 6 6 6 8 10 7 10 10 11 10 8 6 6 5 5 4 4 4 4 4 3 3 2 2 2 2 1 1 1 1 1 0 0 0 0 0 0 -0 -0 -0 0
10 12 7 6 6 6 7 6 10 10 14 15 12 11 11 8 6 5 5 4 4 4 4 3 3 3 2 2 1 1 1 1 1 0 0 1 1 0 0 0 1 0 -0 -0
8 12 11 7 8 9 8 9 8 8 10 13 14 12 7 7 6 5 5 4 4 4 4 3 3 2 2 2 1 1 1 1 1 1 0 1 1 0 0 0 0 -0 -0 0
8 12 14 10 8 6 7 8 8 11 12 10 11 11 7 5 5 5 4 4 4 4 3 3 3 2 2 2 2 2 1 1 1 1 0 1 0 1 0 0 0 0 0 -0
9 11 14 14 10 7 8 7 7 8 8 11 12 11 6 5 5 5 4 4 4 4 4 3 3 3 3 2 2 2 1 1 1 1 1 1 1 1 1 1 0 0 0 0
8 10 12 17 12 8 9 8 7 8 11 10 10 10 8 6 6 5 5 5 4 4 4 3 3 3 2 2 2 2 1 1 1 1 1 1 1 1 1 0 1 0 0 1
10 13 10 11 11 10 8 8 8 9 8 10 9 9 7 6 6 5 5 5 5 4 4 4 3 3 3 2 2 1 1 1 1 1 1 2 1 0 1 1 1 0 0 0
9 14 10 12 11 10 10 8 8 8 8 8 8 8 6 6 5 5 5 5 5 4 4 3 3 3 3 2 2 2 1 1 1 1 1 1 1 1 1 0 1 0 0 0
11 13 12 14 11 11 12 9 8 8 7 7 9 8 6 7 6 5 4 4 4 4 4 3 3 3 2 2 1 2 1 1 1 1 1 1 1 1 1 0 1 1 1 0
10 12 12 13 12 18 10 6 6 7 7 6 6 7 6 5 5 4 3 3 4 4 3 3 3 2 2 1 1 1 1 1 1 1 1 1 1 1 1 1 1 1 1 1
7 10 15 15 15 11 11 8 8 8 8 6 6 6 5 4 4 4 3 3 3 3 3 2 2 2 2 2 1 1 1 1 1 1 1 1 1 1 1 1 1 1 1 2
7 8 13 13 17 17 14 7 6 6 12 6 6 6 6 5 7 7 4 3 3 3 2 2 2 2 2 1 1 1 2 1 2 1 1 1 1 1 1 1 1 0 1 1
11 11 14 14 14 13 8 7 6 12 13 6 6 6 6 7 6 4 3 3 2 2 2 2 2 2 2 1 1 2 2 2 1 1 1 1 0 1 1 0 0 0 1 1
12 13 13 12 15 19 7 7 11 8 6 5 5 5 5 5 4 4 3 3 3 3 2 2 2 2 1 1 1 2 2 1 1 1 1 1 0 1 1 1 0 0 1 1
14 12 14 12 14 9 7 7 5 5 6 5 5 4 4 4 4 4 4 3 3 2 2 2 2 2 2 1 1 2 1 1 1 1 1 1 1 1 1 1 1 1 1 2
10 8 12 11 9 8 7 6 5 4 5 4 4 4 4 4 4 4 3 3 3 3 2 2 2 2 2 2 1 1 1 1 1 1 1 1 1 1 1 1 1 1 1 1
9 8 11 11 8 7 7 5 5 4 4 4 4 3 4 4 4 3 3 3 3 2 2 2 2 2 2 2 1 1 1 1 1 1 1 1 1 1 1 1 1 1 0 1
7 9 11 11 7 7 7 5 4 5 5 4 5 4 3 3 3 3 3 3 3 3 2 2 2 2 2 2 1 1 1 1 1 2 1 1 1 1 1 1 1 11 8 8